Wind_Speed
22 24 26 26 26 24 22 19 19 20 19 19 20 21 23 24 25 26 23 22 22 22 25 26 27 28 27 26 27 27 28 27 26 26 25 24 23 23 22 20 19 18 18 17 17 16 15 15 16 16 15 14 13 13 13 13 13 13 12 12 11 11 12 12 12 13 13 13 12 12 11 10 10 9 9 8 8 8 7 7 7 6 6 6 5 5
24 27 27 25 24 22 21 21 21 22 21 21 22 23 25 26 27 27 26 25 25 25 28 28 29 31 28 26 27 27 28 28 27 26 25 23 23 22 20 19 19 18 17 17 16 15 14 14 16 16 16 16 15 14 14 13 12 12 11 11 11 12 13 13 13 13 13 13 12 12 11 10 10 10 9 9 8 8 8 7 7 7 7 7 7 7
27 30 28 25 24 24 24 24 23 22 23 23 23 24 26 28 28 26 26 27 25 25 27 27 28 31 29 27 28 28 28 28 27 25 24 23 22 20 18 17 18 18 17 17 16 14 14 14 15 16 17 17 16 15 14 13 13 13 12 12 12 13 14 14 15 15 14 14 13 13 12 12 11 11 11 10 10 10 10 10 9 9 9 9 8 8
29 29 25 22 22 23 23 24 23 23 24 25 26 26 28 29 26 23 24 26 24 24 25 26 30 34 32 30 30 29 29 27 25 24 24 24 21 18 17 17 17 17 18 17 16 15 15 15 15 16 17 17 16 15 14 14 13 14 14 14 14 15 15 16 16 16 16 15 15 14 14 13 13 12 12 12 12 12 12 12 11 11 11 10 10 9
32 30 26 24 23 23 22 21 22 23 25 27 27 27 29 28 26 24 24 25 26 27 28 27 29 34 34 30 27 26 26 25 23 23 24 22 20 18 17 17 17 18 18 17 16 16 16 16 16 16 16 17 16 15 14 14 14 15 15 16 16 16 17 17 17 17 17 16 16 16 15 15 15 14 14 14 14 13 13 13 12 12 12 11 11 10
34 32 30 29 29 28 27 26 25 23 25 27 28 28 28 26 26 25 24 24 23 24 27 23 16 17 20 18 17 17 17 18 19 19 20 19 19 18 17 17 18 18 17 17 17 17 17 17 16 16 16 16 16 15 14 14 15 16 17 17 18 18 18 18 18 18 17 17 17 17 17 17 17 16 16 15 15 14 14 13 13 13 12 12 11 11
35 33 31 30 30 30 30 30 29 27 26 29 30 30 27 26 26 24 23 21 17 15 17 15 11 9 12 11 11 12 13 13 13 12 13 14 15 16 16 16 17 17 17 17 17 18 18 18 17 17 17 17 16 15 14 14 15 16 18 19 20 20 20 19 19 19 18 18 18 18 18 18 18 18 18 17 16 15 14 14 13 13 13 13 13 13
34 31 30 30 29 30 32 32 31 27 27 29 31 29 26 25 23 20 19 18 17 17 16 18 18 13 17 21 17 15 18 17 16 14 13 12 13 14 15 15 15 15 16 17 18 19 20 20 20 19 19 18 16 15 14 15 16 17 19 20 21 21 21 20 20 19 19 19 19 19 19 19 20 20 19 19 18 17 16 15 15 15 15 15 15 17
34 30 29 28 27 29 31 30 26 24 27 29 28 27 24 21 19 16 15 16 18 18 16 20 21 12 16 27 23 20 24 21 18 17 16 15 15 15 15 15 15 16 17 18 19 20 21 21 21 20 20 18 17 16 15 15 16 18 19 20 21 22 22 21 21 20 20 20 20 21 21 21 22 22 21 21 20 19 18 18 18 18 18 19 20 22
35 33 32 29 28 30 29 25 22 22 25 26 25 24 21 17 14 14 14 15 15 14 14 21 23 13 11 21 23 22 22 18 15 15 17 18 18 17 16 15 15 15 16 18 19 21 22 22 21 21 20 19 18 17 16 16 17 18 20 21 22 23 23 22 22 22 21 21 22 22 22 23 23 24 24 23 23 22 22 21 21 21 22 23 25 26
37 36 35 32 31 31 28 25 23 23 24 23 21 19 16 14 14 14 14 14 10 10 15 22 27 19 9 12 19 21 17 11 12 15 16 18 16 14 13 12 13 14 16 18 20 21 22 21 21 21 20 19 18 17 16 17 18 19 20 22 23 24 24 24 23 23 23 23 24 24 24 24 25 25 26 25 25 25 25 24 25 25 26 28 29 31
37 36 36 35 34 32 30 27 26 24 24 22 20 17 13 9 9 10 10 10 7 6 9 16 22 21 14 9 9 12 11 9 12 15 15 14 13 12 10 11 13 15 18 19 20 21 21 21 20 20 20 19 17 17 17 17 18 19 21 22 24 24 25 25 25 25 25 26 26 25 26 26 26 27 27 27 27 27 27 28 28 29 30 32 34 35
35 36 35 34 34 33 31 28 25 24 24 22 20 18 13 6 4 6 5 5 8 7 7 11 13 16 21 20 13 10 10 12 15 16 16 14 12 10 9 12 15 17 18 19 20 21 21 21 21 20 19 17 16 16 17 18 19 20 22 23 24 25 26 27 27 27 27 27 27 27 28 28 28 29 28 29 29 29 30 30 31 32 34 36 37 39
26 28 32 34 35 35 34 32 30 28 26 26 25 23 17 7 3 5 4 3 6 8 11 13 10 10 18 21 19 17 15 16 20 19 16 15 13 10 11 13 16 18 19 20 21 22 22 22 21 19 18 16 16 16 17 19 20 21 23 24 25 26 27 28 29 29 29 29 29 29 30 30 30 31 30 31 31 31 31 32 33 35 36 38 39 39
17 16 23 28 28 29 32 34 34 30 26 25 28 27 22 15 8 4 4 3 2 1 7 12 8 7 8 7 11 19 20 20 23 20 17 18 14 11 13 13 16 18 19 20 22 23 23 22 20 19 18 17 16 16 17 19 20 22 23 25 26 27 29 30 30 30 30 30 31 31 31 32 32 32 32 32 32 32 33 34 35 36 36 37 37 37
21 21 24 23 21 22 24 28 32 30 24 21 26 28 26 26 20 8 4 5 1 2 5 11 10 10 10 6 6 15 21 24 26 22 20 18 14 12 12 12 14 16 18 21 22 23 22 21 20 19 18 16 15 16 18 20 22 24 25 27 28 29 30 31 31 32 32 32 32 32 33 33 33 33 33 33 33 33 34 35 36 36 36 35 35 35
18 20 24 23 21 21 21 23 27 29 26 22 27 32 31 31 27 14 6 6 6 6 6 11 13 15 15 14 12 15 18 23 26 23 20 17 14 12 10 10 12 15 19 21 22 22 22 21 20 18 16 16 17 20 22 24 25 26 28 29 30 31 31 32 32 33 33 33 34 34 34 34 34 33 33 33 33 34 35 36 36 36 35 35 34 34
20 18 20 20 21 22 24 24 25 30 31 27 29 33 31 26 25 18 7 3 5 6 5 11 16 16 15 14 15 20 21 23 25 21 18 15 12 10 9 9 12 16 19 21 23 23 22 20 18 17 18 20 23 25 26 27 27 28 30 31 32 32 33 33 34 34 35 35 35 36 35 35 34 33 33 34 35 36 37 38 38 37 36 36 35 36
27 20 18 20 20 21 24 25 25 30 33 32 30 29 26 18 15 16 11 3 5 6 4 8 15 18 20 19 18 20 21 22 22 19 15 13 10 9 9 11 14 17 19 21 22 22 20 18 18 20 24 26 27 28 27 28 29 30 31 32 33 33 33 34 35 35 36 37 37 37 36 35 34 34 35 37 38 39 40 40 39 39 38 37 37 37
31 22 15 19 23 22 25 29 31 33 35 37 33 27 26 21 13 16 18 9 4 5 5 5 7 12 20 23 20 18 18 19 19 16 13 11 10 11 11 13 15 16 18 19 19 19 19 21 23 25 26 27 27 28 28 29 30 31 32 33 34 34 35 35 36 37 38 38 37 37 35 35 35 36 37 39 40 40 39 39 39 39 38 37 37 37
34 28 20 21 24 25 29 33 36 37 37 39 38 33 32 29 18 15 22 21 11 4 3 4 5 6 11 13 13 14 16 18 18 13 10 11 12 12 12 12 14 15 17 18 19 21 22 24 26 26 26 27 27 27 28 30 31 32 33 34 35 35 36 37 38 39 39 38 37 36 35 36 37 38 40 41 40 39 38 37 37 37 37 37 37 36
35 36 31 27 28 31 35 36 35 37 38 39 41 42 40 39 31 16 13 22 21 12 7 5 4 3 6 11 14 19 22 18 14 12 13 14 13 13 12 13 14 16 18 20 22 23 24 26 26 26 27 26 27 27 28 30 31 33 34 35 36 37 38 39 40 40 39 37 36 36 37 39 40 41 42 41 40 38 37 37 36 36 36 36 35 35
34 37 34 32 35 36 36 35 33 35 38 39 41 43 42 44 44 28 12 15 22 23 18 8 6 5 10 17 21 22 22 15 14 15 14 14 14 14 14 14 16 17 19 21 23 24 25 26 27 26 26 26 27 28 29 31 32 34 36 37 38 39 40 40 40 39 37 37 37 39 41 41 41 41 41 39 37 36 36 36 36 36 36 35 35 35
32 36 33 29 31 31 32 34 34 32 35 40 43 45 44 45 46 39 27 19 18 24 20 7 5 9 14 19 19 17 16 13 13 13 13 14 15 15 16 17 17 19 20 21 23 23 24 25 26 26 26 27 28 29 30 32 34 36 38 39 40 40 40 40 39 38 37 38 40 42 43 42 42 41 39 36 35 35 35 35 36 36 36 36 36 35
33 37 31 18 12 15 19 22 27 32 37 42 46 46 45 45 42 41 38 26 18 24 24 13 8 10 16 18 17 14 14 13 13 15 17 19 19 18 19 20 20 19 20 21 23 24 25 26 26 27 27 28 29 30 32 34 37 39 40 41 41 40 40 40 39 39 40 41 43 44 43 43 42 40 37 36 36 36 36 37 37 38 38 37 36 35
34 38 36 25 14 11 14 17 28 42 46 45 47 47 46 46 45 44 40 29 20 21 26 25 17 10 13 17 16 15 15 16 20 23 24 25 24 23 24 24 22 20 19 21 24 26 28 28 28 28 29 30 31 32 34 37 40 41 42 42 41 40 40 40 40 41 42 43 44 43 43 43 42 40 38 38 38 38 38 39 39 39 38 36 35 34
35 37 42 43 37 34 33 32 36 42 45 47 50 49 48 47 48 46 40 34 28 18 24 37 31 19 20 21 19 22 23 23 27 29 29 28 27 28 29 25 22 21 23 25 28 30 31 31 31 32 32 32 32 34 35 38 41 43 42 41 40 39 40 40 41 43 44 44 43 43 43 42 41 40 40 39 38 38 39 40 39 38 37 35 34 34
38 38 44 48 48 48 46 39 33 31 35 42 48 50 50 47 47 49 46 45 39 25 26 40 36 31 35 30 26 30 29 27 31 32 32 31 30 31 28 25 26 28 29 29 30 31 32 32 33 32 32 32 33 34 36 39 42 43 41 40 39 39 40 41 43 44 44 44 43 43 42 40 40 41 40 38 37 38 39 39 38 37 36 35 35 34
41 43 46 47 48 51 49 45 38 30 27 29 33 40 46 46 48 52 51 50 45 37 38 41 35 35 39 33 30 32 29 30 33 34 35 35 34 34 31 31 34 34 33 32 32 33 33 33 32 30 30 31 32 34 38 40 42 40 38 38 38 40 41 42 44 44 44 44 43 42 41 40 41 41 40 38 37 37 38 38 37 36 36 36 36 36
42 46 46 44 45 49 50 50 46 35 28 27 27 30 36 40 45 48 48 48 47 46 48 43 35 38 39 32 31 31 30 34 36 37 39 38 37 36 36 37 38 36 35 35 35 35 34 32 30 29 30 31 30 32 35 37 37 36 37 38 39 41 42 42 44 45 46 46 45 44 43 43 42 41 39 37 36 37 37 37 36 36 36 36 37 37
44 45 45 41 40 42 46 48 45 38 32 30 30 31 34 36 39 41 42 44 47 50 49 44 41 44 43 36 34 34 36 38 39 40 42 40 39 40 40 40 39 36 36 36 36 36 34 32 31 30 31 31 30 30 32 33 34 36 39 40 41 42 43 43 45 46 47 47 47 47 46 44 42 39 38 37 36 36 36 36 35 35 36 37 38 39
47 47 46 41 35 38 44 41 40 41 35 32 39 44 42 39 38 39 40 40 44 46 43 42 44 45 42 39 38 39 39 39 40 41 42 41 42 43 42 40 37 36 36 36 36 35 34 32 31 31 32 32 31 32 32 34 36 39 41 42 43 44 45 45 46 46 47 48 48 47 45 42 40 38 37 36 35 35 35 35 35 35 36 38 39 41
50 50 51 43 33 36 41 38 39 37 25 30 50 55 48 46 42 39 41 41 42 42 40 41 45 43 40 40 40 39 38 38 39 39 40 42 43 43 41 38 35 35 36 36 35 33 32 31 30 30 31 31 32 32 33 35 38 40 42 44 45 46 47 47 47 46 46 46 44 43 41 39 38 38 37 36 35 34 34 34 35 36 38 40 41 43
53 53 52 44 31 28 33 33 30 23 15 29 49 49 43 46 45 43 46 47 46 45 44 43 42 39 38 38 38 37 36 36 36 37 39 41 41 39 37 35 34 35 34 34 33 32 31 31 30 31 31 30 30 30 31 33 35 37 40 42 44 45 46 46 45 44 43 41 41 40 39 38 39 38 38 36 34 34 34 34 36 38 40 41 42 42
52 54 50 44 33 25 26 25 15 11 23 37 40 36 33 32 33 37 41 42 43 42 40 38 36 35 35 35 34 34 35 35 35 37 38 37 36 34 33 33 33 33 33 32 32 32 33 32 31 30 29 28 28 28 28 30 31 34 36 38 40 41 42 42 41 40 40 40 40 40 39 39 39 38 37 35 33 34 34 36 38 40 41 41 41 41
47 50 48 43 35 23 21 24 14 11 25 35 34 35 33 24 22 27 29 32 34 32 31 31 31 30 30 31 32 32 32 33 33 34 33 31 30 31 31 31 31 31 32 32 32 32 32 30 29 28 27 27 27 27 28 29 31 33 34 35 37 37 38 38 39 39 40 40 40 39 39 38 37 35 34 33 33 35 36 38 39 40 40 40 40 40
41 44 45 40 34 26 21 25 24 18 20 29 34 33 29 24 24 26 25 28 30 27 27 28 27 28 29 29 30 30 29 29 31 31 29 28 28 29 30 31 31 31 31 31 30 30 29 27 27 26 26 26 26 27 30 31 32 33 34 35 35 35 36 36 37 37 37 37 37 36 35 34 33 32 32 33 34 36 37 39 39 39 40 40 40 41
40 41 43 37 31 30 24 17 16 12 14 27 33 27 23 24 24 22 22 27 30 27 27 26 25 26 26 26 27 26 25 27 30 28 26 25 27 28 28 29 30 29 28 28 27 27 26 26 26 26 26 27 29 31 32 33 34 34 35 35 35 35 35 35 35 35 34 33 33 32 32 31 31 31 32 34 35 36 37 38 38 39 40 40 41 41
38 37 40 35 27 28 26 13 8 11 16 24 27 22 21 21 19 17 18 25 31 29 25 24 22 21 23 24 24 23 23 26 28 24 21 24 25 25 26 26 26 26 26 25 25 25 25 25 27 28 29 30 31 32 33 33 34 35 35 35 35 35 35 34 33 32 32 32 31 31 30 30 31 32 33 34 35 36 36 37 37 39 40 40 41 41
35 33 35 34 27 25 25 17 13 17 21 23 22 19 19 18 17 13 9 14 25 24 18 18 19 19 22 22 20 20 22 23 22 20 20 24 24 23 23 24 24 24 24 23 24 24 26 27 28 29 29 30 31 32 32 33 33 33 34 34 34 34 34 33 32 32 31 31 31 30 30 30 31 33 33 34 35 35 35 36 37 38 39 39 40 40
33 31 31 32 29 25 23 19 16 20 24 25 24 23 22 18 15 14 11 13 20 18 12 15 18 18 18 18 17 18 19 18 20 21 22 22 21 20 21 21 22 22 22 23 25 26 27 28 27 28 28 28 30 30 30 31 31 31 31 32 32 32 32 31 31 31 31 31 30 30 31 31 32 33 33 34 34 34 34 35 36 36 37 37 38 39
31 27 25 29 29 25 23 19 15 19 27 29 25 26 26 20 16 19 21 21 21 19 16 17 17 16 15 15 15 17 18 19 22 22 21 19 19 20 21 21 22 23 23 25 25 25 26 26 26 26 26 27 28 28 28 29 29 29 29 30 29 30 30 30 31 30 31 31 31 31 32 32 32 33 33 33 33 33 34 34 34 34 35 35 37 38
27 23 21 26 28 23 20 16 11 16 28 31 27 28 29 25 22 24 25 22 21 21 21 21 20 18 16 16 16 17 20 22 22 20 20 20 21 22 23 23 23 24 24 24 24 24 24 25 25 24 24 25 26 26 27 27 26 26 27 27 27 28 29 30 30 30 31 31 31 32 32 32 32 32 32 32 32 33 33 33 33 33 34 35 36 37
23 23 22 25 25 21 21 21 19 24 30 30 26 25 24 22 23 24 22 22 21 21 21 21 20 18 17 17 17 18 21 21 20 21 21 22 23 24 24 24 24 25 24 23 23 23 23 23 23 23 23 24 25 26 26 25 25 25 26 26 26 27 28 29 30 30 31 31 31 31 31 31 32 32 32 32 32 32 32 33 33 33 34 34 35 36
23 25 25 27 27 26 27 29 30 31 31 28 25 22 17 17 21 23 23 22 21 20 20 20 18 17 17 16 17 20 21 20 21 22 22 22 24 24 24 25 26 25 24 23 23 22 22 21 22 22 23 24 25 25 26 25 25 25 25 25 25 27 28 29 29 30 30 30 30 31 31 31 31 31 31 32 33 33 33 33 33 33 33 34 35 36
25 26 27 27 28 28 29 32 32 31 30 28 24 19 17 19 21 22 22 21 20 20 19 17 16 16 16 17 19 20 19 20 21 22 22 23 24 25 25 27 26 25 24 23 22 22 21 22 23 23 24 25 25 26 26 26 26 27 26 25 26 28 28 29 29 30 30 30 31 31 31 31 30 31 32 33 34 34 34 33 33 33 33 34 34 35
28 28 28 28 28 27 27 29 31 31 30 29 24 21 20 20 19 18 19 20 19 18 16 15 15 16 17 18 19 19 19 21 22 22 22 24 25 27 27 27 25 24 23 23 22 22 23 23 24 24 25 27 27 27 27 28 28 28 27 27 28 29 30 30 30 31 31 31 32 32 32 32 32 33 34 35 35 35 34 34 34 34 34 34 34 35
29 28 30 31 32 31 29 28 26 24 25 26 25 21 19 17 16 16 16 17 18 16 15 16 17 17 18 19 19 20 21 22 23 24 25 26 27 28 28 26 25 24 24 24 24 24 24 24 25 26 28 29 29 29 29 29 30 29 30 30 30 30 31 32 32 32 33 33 34 34 35 35 35 36 36 37 37 36 35 35 35 35 35 35 35 35
29 30 32 33 33 34 34 32 28 24 22 22 21 18 16 14 14 14 14 15 15 15 16 17 17 18 19 20 21 22 23 24 25 26 27 28 29 29 29 28 27 26 26 26 26 26 25 26 27 28 30 30 30 31 31 31 31 30 31 32 32 32 33 34 34 34 34 35 36 37 37 38 38 39 39 39 39 38 37 37 37 36 36 36 36 36
33 35 36 34 33 33 32 30 29 27 23 19 16 15 14 14 14 14 14 15 15 16 17 18 18 20 22 23 24 25 26 26 27 27 29 30 30 30 30 29 29 29 29 29 29 28 28 28 29 30 31 31 31 32 32 32 32 32 32 33 33 34 35 35 36 36 36 37 38 38 39 40 41 41 41 41 40 39 38 38 38 38 37 37 37 37
34 34 34 32 31 30 26 23 23 22 18 14 12 13 14 15 15 16 16 16 16 17 18 19 21 24 25 26 26 27 28 28 29 30 31 31 31 31 31 30 30 31 30 31 32 32 32 32 32 33 32 32 31 32 34 34 35 35 34 35 35 36 36 37 38 38 38 38 39 39 41 42 43 43 43 42 41 40 40 40 39 39 39 38 38 38
Wind_Direction
255 253 253 257 262 267 271 273 274 274 270 266 265 263 264 265 266 269 270 270 272 272 271 271 271 271 269 269 271 270 270 270 269 269 268 266 266 265 267 269 269 266 261 256 255 259 260 252 249 251 258 266 274 280 283 279 275 272 275 279 281 281 282 279 277 275 273 272 271 269 267 263 261 258 256 254 251 248 245 241 235 226 218 215 215 219
254 252 257 263 266 268 269 269 269 267 265 263 262 261 263 263 265 271 274 275 276 275 274 276 274 272 271 270 270 268 268 269 269 268 267 264 262 262 262 261 260 257 252 250 253 257 258 255 253 255 260 267 274 279 282 280 275 270 268 271 272 274 275 274 271 269 267 266 265 264 261 258 256 254 254 252 249 245 239 234 229 225 224 225 227 232
252 254 262 266 266 267 266 266 265 264 263 260 258 259 260 264 269 275 277 279 279 278 277 278 276 274 273 270 267 267 267 266 266 264 262 260 258 257 256 253 251 247 244 246 251 254 256 257 258 260 263 268 273 276 278 277 271 266 264 264 267 269 269 269 267 265 264 262 261 260 258 257 254 253 252 250 249 247 244 240 238 237 239 242 245 249
253 259 266 265 264 265 264 262 260 258 258 256 256 256 260 267 272 276 280 283 282 279 277 279 280 277 274 270 267 265 264 263 261 259 256 256 256 254 250 247 245 240 239 243 247 250 256 260 262 263 265 267 271 273 273 271 266 261 260 261 263 265 265 264 263 262 261 260 259 259 258 255 252 250 249 247 246 246 246 246 247 248 250 253 257 260
257 262 264 261 260 260 260 259 256 254 256 258 257 257 262 270 274 274 277 281 283 280 278 281 285 282 278 276 270 262 258 256 254 252 253 252 250 247 243 242 238 235 238 242 245 251 258 263 264 265 267 267 269 271 269 265 260 257 257 259 260 261 260 259 258 257 258 258 258 258 257 254 250 248 247 245 243 243 243 244 247 250 252 256 260 263
257 260 260 259 259 259 260 260 258 257 258 260 261 261 265 270 273 272 272 276 279 279 280 281 281 283 283 277 265 252 243 243 246 248 249 247 243 239 238 237 235 236 241 245 248 256 262 266 268 268 268 268 268 269 267 261 256 254 254 256 257 257 256 255 255 255 255 256 257 257 256 254 252 248 245 244 242 241 242 243 246 250 252 256 260 266
256 258 258 258 259 260 260 260 259 257 256 259 263 265 267 268 268 270 270 269 265 267 279 276 255 267 284 263 236 226 226 231 240 242 238 237 235 234 235 235 238 242 247 251 255 262 268 271 273 273 270 269 269 267 264 259 255 253 253 253 254 254 254 254 254 254 254 256 257 257 256 254 252 249 246 245 244 243 244 245 247 251 255 258 266 273
257 258 258 258 259 259 258 259 261 259 255 258 264 268 268 268 267 267 264 257 254 259 271 269 258 262 271 259 241 235 248 254 250 240 232 230 230 230 232 235 240 246 250 256 262 267 272 275 275 273 271 270 269 267 263 259 255 254 253 252 253 254 254 254 253 253 254 255 256 257 257 255 254 251 248 247 247 247 247 248 251 256 262 267 276 283
260 260 261 261 259 258 258 261 263 259 256 257 263 267 266 266 265 258 250 248 258 263 262 259 254 251 263 263 262 258 258 260 254 242 234 230 230 231 232 236 240 246 252 257 263 268 271 272 271 269 269 268 267 266 263 260 258 256 254 254 255 255 254 253 253 253 253 254 255 256 256 255 254 253 251 250 250 251 252 254 258 264 270 277 284 289
259 259 260 259 256 256 259 260 257 252 253 256 259 261 260 259 254 244 243 249 259 259 247 250 250 245 259 266 267 266 261 257 247 234 228 225 225 228 230 234 239 243 251 256 261 266 268 268 268 268 267 266 265 264 264 263 261 259 258 258 257 256 255 255 255 255 254 254 254 255 255 255 255 255 254 254 254 255 257 260 266 271 276 282 287 291
255 257 257 255 254 256 256 254 251 247 248 249 249 248 245 245 243 242 247 249 258 255 245 253 254 245 249 268 264 262 260 247 225 218 218 218 218 221 222 228 239 246 253 258 261 265 268 268 268 267 265 263 262 262 262 262 261 261 261 259 258 257 257 257 257 257 257 257 256 256 257 258 258 258 257 257 258 259 262 267 272 277 281 285 289 292
251 251 252 253 253 254 252 250 248 245 243 240 236 229 225 230 235 240 240 233 241 245 237 252 248 232 228 242 247 244 235 213 208 205 199 198 201 207 218 237 251 256 258 260 264 267 269 270 268 266 263 262 262 261 261 261 261 262 262 260 259 258 259 259 259 259 259 259 259 260 261 261 260 260 260 260 262 264 268 273 277 282 286 290 293 296
250 250 251 253 253 251 249 245 241 238 235 231 221 209 205 199 203 219 207 211 238 239 235 239 228 221 233 239 232 216 208 204 200 190 183 187 197 213 246 262 261 260 261 263 267 269 271 271 269 266 264 264 266 267 266 265 266 266 265 262 261 260 261 261 261 261 260 260 261 263 263 263 263 262 263 264 267 269 273 278 282 286 290 294 297 299
250 255 252 248 249 249 245 238 233 231 227 222 213 202 196 185 189 224 209 238 257 242 233 226 218 232 246 251 243 217 201 196 187 179 186 198 205 240 268 263 254 254 257 261 264 265 268 269 267 265 264 267 271 272 270 268 268 267 266 264 263 263 263 262 262 261 261 262 263 264 264 264 265 265 266 268 271 274 278 281 285 289 292 295 298 298
242 255 254 249 248 249 245 239 238 239 235 232 224 213 206 202 203 216 207 230 289 225 208 199 201 227 223 241 235 205 193 188 182 181 194 202 216 255 260 247 248 251 253 257 258 261 264 265 264 265 267 270 272 272 271 271 271 269 267 266 265 264 263 262 261 261 262 263 264 265 265 265 266 267 269 271 274 277 281 284 288 291 294 295 296 296
240 249 257 255 251 247 243 240 238 235 234 235 224 214 214 218 222 236 247 240 299 11 205 195 212 229 209 204 207 194 192 189 188 193 200 209 237 254 244 241 247 248 250 254 256 259 263 264 265 267 267 270 273 276 276 275 273 270 268 267 265 263 262 261 262 262 263 265 265 266 266 267 269 270 272 274 277 280 284 288 291 293 294 294 294 295
236 248 255 250 244 238 231 233 232 225 223 222 212 211 218 222 224 233 261 259 261 279 237 208 228 239 233 241 227 202 200 195 196 205 213 227 247 244 239 246 245 246 250 253 256 260 263 264 264 263 264 272 278 280 279 276 273 269 266 265 263 262 262 262 263 264 265 266 267 268 268 269 270 272 275 278 282 285 288 291 292 293 293 294 295 297
245 253 255 244 237 234 226 225 225 223 223 218 213 218 223 223 224 227 243 257 229 255 250 216 226 228 223 234 219 201 202 201 203 213 224 234 240 238 246 248 245 249 249 250 255 258 259 258 258 263 272 279 281 279 276 272 268 266 264 263 262 261 261 262 264 266 267 268 269 269 269 271 273 276 280 283 287 290 292 293 294 294 295 298 300 302
248 250 254 241 232 232 228 222 217 218 221 222 224 225 218 214 217 212 215 233 207 235 265 216 220 225 219 219 216 206 203 202 206 213 219 226 237 249 256 253 252 253 249 251 254 254 253 256 263 272 275 276 275 273 271 268 265 264 263 262 262 262 263 264 266 268 269 269 269 269 271 273 277 281 285 288 291 293 294 295 296 297 299 301 303 303
243 240 248 241 231 226 222 217 214 215 216 218 223 224 216 216 215 204 211 219 201 223 250 213 207 228 229 226 226 224 213 200 197 200 213 236 259 266 263 258 254 251 251 252 252 251 255 262 268 270 270 269 268 267 267 266 264 263 263 263 263 263 264 266 267 268 269 269 269 270 273 278 282 286 290 293 294 295 295 296 297 298 300 301 302 303
238 235 238 235 225 218 218 221 223 224 220 217 217 216 215 215 212 215 224 224 218 225 251 246 239 233 228 222 215 206 191 181 185 201 240 265 272 269 259 252 248 247 249 249 251 256 260 264 266 265 265 265 265 265 266 265 264 263 263 264 264 265 266 267 268 268 267 268 269 272 277 283 288 292 295 297 297 296 296 297 297 297 298 299 301 302
233 231 230 228 222 220 226 232 232 230 229 227 224 221 219 216 210 209 228 221 219 228 229 241 277 253 192 178 173 171 169 175 199 236 265 270 267 260 249 244 246 247 248 250 255 261 263 264 264 262 263 263 263 264 264 264 264 265 264 264 264 265 266 266 267 266 267 268 272 276 281 287 293 297 298 296 295 295 295 296 297 298 299 300 300 300
238 230 228 228 230 232 234 235 231 228 228 229 229 228 225 223 215 208 214 215 214 226 232 244 288 256 185 167 162 167 177 201 242 261 269 266 260 256 249 249 253 251 252 257 260 263 264 263 261 259 259 260 261 262 262 264 265 265 264 263 263 264 264 264 265 266 268 272 276 281 286 291 295 297 296 293 292 293 294 295 297 298 299 299 299 298
231 225 225 228 235 238 237 237 234 231 228 225 228 229 226 225 220 218 229 230 218 221 218 220 263 218 185 181 183 194 212 235 255 258 260 258 255 260 263 262 261 259 259 260 260 260 258 255 255 255 258 260 262 262 264 266 265 263 262 261 261 261 261 263 265 268 273 277 281 285 288 291 294 296 295 293 293 294 295 297 299 299 299 298 297 297
226 219 217 215 233 239 235 237 234 230 228 227 229 228 225 226 223 223 228 230 235 231 214 207 238 205 192 207 214 221 233 243 256 262 266 268 266 267 272 273 271 267 263 258 255 254 251 250 252 256 260 262 262 264 265 265 263 260 259 258 258 259 261 264 268 272 277 281 284 286 288 290 294 298 297 296 296 296 298 299 298 297 297 296 295 294
235 225 219 210 204 213 215 222 228 227 225 225 228 227 225 225 222 222 224 223 233 234 215 217 230 212 212 223 221 228 241 254 270 277 276 275 273 273 278 281 276 270 265 260 256 256 254 253 256 259 262 263 263 264 264 263 260 258 256 256 256 259 264 268 272 276 279 282 284 284 287 291 296 298 297 296 296 296 296 296 295 294 293 293 292 291
235 229 227 225 223 229 231 231 235 234 228 226 228 227 225 224 223 222 220 220 223 223 226 232 231 228 236 232 229 248 260 268 278 282 278 274 275 279 281 278 274 272 270 265 261 260 259 259 261 264 264 264 263 262 263 261 258 255 254 255 259 263 268 271 274 278 280 281 282 283 287 290 293 294 293 292 293 293 293 292 292 291 290 289 289 289
227 227 231 232 233 238 239 239 242 244 239 235 235 232 228 224 223 221 220 224 225 221 238 242 235 237 247 245 247 260 266 274 281 282 278 276 277 278 276 273 277 280 277 272 266 264 264 265 267 267 265 262 260 259 260 258 255 254 255 258 262 266 269 272 275 277 278 279 280 282 285 287 289 290 288 288 288 290 290 290 289 288 287 287 286 286
225 232 236 235 236 238 237 238 243 246 245 243 240 238 235 229 225 223 223 227 227 225 240 247 244 247 251 249 253 263 270 277 280 279 276 277 276 273 273 277 282 283 279 274 271 271 271 270 269 266 262 258 257 257 256 255 254 255 257 260 263 266 269 272 274 276 276 277 278 281 283 284 285 286 286 285 286 288 289 288 287 285 285 284 285 285
225 233 236 235 236 237 234 236 241 242 241 238 234 236 238 236 234 233 232 232 232 235 243 245 246 251 253 252 256 264 270 273 274 275 274 274 272 273 277 281 283 281 278 277 277 277 277 274 269 264 258 255 253 252 251 252 253 255 257 259 262 265 268 270 272 273 275 275 277 279 281 282 283 283 284 284 284 286 286 285 283 283 282 282 284 285
225 230 234 232 232 234 234 234 236 237 237 236 235 236 237 237 237 236 236 234 233 237 242 242 246 252 254 257 260 265 269 271 272 272 272 272 274 277 281 281 279 278 279 281 281 281 279 276 270 265 260 257 254 251 249 250 251 253 256 259 261 264 266 267 269 271 272 274 275 276 277 279 280 281 282 282 283 284 283 282 280 280 280 281 283 285
224 227 230 229 229 233 233 231 232 235 237 240 242 240 235 231 230 230 232 232 231 235 239 240 245 250 255 261 266 268 271 272 271 271 272 273 276 277 277 277 277 279 281 282 281 280 278 274 270 265 263 261 259 256 253 251 250 252 255 258 260 262 264 265 267 268 270 271 273 274 275 277 278 279 280 281 282 281 280 278 277 277 278 280 283 287
225 226 226 225 225 232 234 233 232 235 238 242 242 240 234 230 230 229 231 233 233 235 237 240 247 255 262 267 270 271 271 271 272 273 273 272 272 272 273 275 278 280 280 279 278 277 274 271 267 265 263 262 260 258 254 252 251 252 254 257 259 261 262 265 266 268 269 270 271 272 273 275 277 279 280 280 279 278 277 276 276 276 278 281 285 288
229 224 223 223 223 230 233 230 227 225 224 238 242 243 241 237 235 235 239 241 242 241 243 248 255 261 264 265 267 269 270 271 271 270 267 265 266 268 270 274 277 277 276 275 273 271 269 268 266 265 264 262 259 256 254 253 253 254 255 256 258 260 262 264 266 267 268 268 269 270 272 275 277 279 279 278 277 275 275 275 275 277 280 284 287 289
230 224 222 223 222 224 219 209 205 215 229 238 245 248 247 242 238 242 247 250 248 246 247 251 256 259 260 262 265 267 267 265 262 260 259 260 262 265 269 272 274 273 271 269 268 267 266 266 264 263 262 261 260 258 258 258 257 257 257 257 259 260 262 263 265 265 266 267 268 271 273 276 277 277 276 275 275 275 276 276 278 281 283 285 287 289
231 226 222 219 217 214 195 186 194 233 235 238 247 247 241 231 224 231 240 244 245 246 248 251 256 259 261 263 263 259 255 252 252 252 254 259 263 267 271 272 270 268 266 266 265 264 264 263 262 262 263 263 264 265 265 264 262 261 261 261 262 262 263 264 264 265 266 267 269 271 273 273 273 274 274 275 277 278 279 280 281 283 285 286 287 288
228 226 223 217 214 211 194 194 216 241 245 242 243 241 237 232 231 237 245 249 251 254 254 255 258 259 258 256 250 245 242 244 246 250 257 265 270 270 270 268 266 265 264 263 262 262 262 263 264 265 266 267 268 269 268 268 267 267 267 267 267 267 267 267 266 267 267 269 270 271 271 271 272 274 276 278 279 280 281 282 283 284 285 286 286 286
224 225 224 220 215 214 208 205 221 237 247 243 241 241 243 246 249 254 258 260 261 262 262 263 263 258 250 241 234 233 236 242 250 258 266 269 268 266 265 264 263 263 262 261 260 261 261 263 264 265 267 268 270 271 271 271 271 271 271 271 271 270 270 270 270 271 271 272 272 272 272 273 275 277 278 279 280 281 281 282 284 285 285 285 284 285
220 221 222 221 216 212 210 209 221 226 237 245 248 253 254 253 258 262 261 264 267 269 271 269 262 247 234 228 228 232 238 249 261 270 268 263 263 262 262 261 261 260 259 258 259 260 261 263 264 266 268 270 271 271 270 271 271 272 272 272 271 272 272 273 274 274 274 274 273 274 275 276 277 278 278 279 279 280 281 282 283 283 283 283 283 284
213 216 218 218 219 218 216 220 232 234 241 251 256 260 261 264 269 263 249 265 273 276 270 254 241 228 225 228 232 240 249 262 271 270 262 262 266 264 260 259 257 256 257 258 260 262 263 265 266 268 269 269 269 270 270 271 271 271 271 272 272 273 275 276 276 276 276 276 276 277 277 277 277 277 276 277 277 278 280 281 282 282 283 283 283 284
211 214 217 219 223 225 223 226 237 244 250 256 259 264 270 271 257 237 229 256 274 275 249 221 219 222 229 238 248 257 265 268 266 264 264 266 265 260 257 256 256 257 260 263 264 265 266 268 269 270 269 269 269 270 271 271 271 272 273 273 274 275 276 276 277 277 278 278 277 277 277 276 275 275 275 276 278 279 281 281 282 282 283 283 283 284
210 212 216 220 223 226 229 235 248 252 254 257 261 265 265 255 233 237 252 259 260 254 237 226 231 240 250 260 267 269 269 263 260 262 264 262 259 258 259 260 262 264 266 266 267 269 270 270 271 270 270 269 270 271 272 272 273 273 274 275 276 277 276 276 277 278 278 278 278 278 277 276 275 275 276 277 278 279 280 280 281 282 283 284 284 285
216 214 214 220 224 226 230 234 244 252 257 263 265 262 260 255 247 254 260 254 245 241 239 242 252 262 273 279 275 266 261 257 256 257 258 259 260 262 263 265 267 269 270 271 271 271 270 270 271 270 270 270 271 272 273 274 274 274 274 275 275 276 276 276 277 277 277 277 278 277 276 275 275 275 275 276 277 278 279 280 281 283 284 285 286 287
223 220 220 225 229 226 224 229 245 260 267 273 271 264 263 263 257 255 249 241 241 245 250 258 269 278 285 285 274 260 255 254 254 256 258 260 262 263 267 271 272 274 275 275 272 269 269 270 270 270 270 271 273 275 276 277 277 275 275 276 276 275 276 276 276 276 276 277 277 275 275 274 274 274 274 276 277 278 279 281 282 283 284 285 286 287
232 234 237 241 244 244 244 249 258 263 266 268 267 262 254 242 239 240 239 242 251 262 270 278 285 287 286 277 262 254 253 255 257 258 260 261 264 268 272 274 275 276 275 272 269 268 269 270 271 271 272 275 278 279 279 279 279 279 279 279 276 276 276 276 276 277 277 277 275 274 274 274 273 274 275 277 278 279 280 281 282 283 283 283 284 285
240 244 248 250 251 253 255 256 257 258 260 262 261 253 236 225 229 239 249 261 273 280 283 286 287 282 274 262 255 255 257 258 259 261 265 268 271 272 272 273 274 273 271 269 269 270 271 272 273 275 277 280 281 281 281 281 281 282 283 280 277 276 277 278 278 278 278 277 276 275 275 275 276 277 278 278 279 280 280 281 281 282 282 282 283 283
241 244 247 249 250 250 251 253 254 254 256 256 253 247 243 244 251 262 271 279 284 285 284 282 276 267 258 254 256 258 258 259 262 266 270 272 273 273 272 272 272 270 270 270 270 271 273 274 275 278 279 280 282 282 282 283 283 284 283 280 278 278 278 279 280 280 280 279 278 277 277 278 279 281 281 280 280 280 280 280 281 281 281 281 281 282
241 243 245 248 249 248 248 251 252 251 250 248 246 247 251 256 265 273 275 277 278 277 273 268 262 259 257 257 259 258 259 263 267 271 272 272 271 271 271 271 271 271 271 269 269 271 274 275 276 278 279 280 282 282 281 281 282 282 281 280 280 279 279 279 280 280 280 279 278 278 278 279 281 283 282 281 280 280 280 280 280 280 280 280 280 281
243 245 247 248 249 247 245 246 246 245 243 243 244 248 251 255 259 261 259 261 265 263 259 257 258 260 261 260 260 262 267 270 271 271 270 268 267 268 269 270 272 272 270 269 269 272 275 276 277 278 279 280 281 280 280 280 280 280 279 278 278 277 277 278 278 278 278 277 277 277 277 278 279 281 281 280 278 278 278 279 279 279 279 278 279 280
246 248 249 248 247 247 247 247 248 249 251 251 250 248 247 245 243 243 245 250 255 257 258 259 259 261 262 262 264 267 270 270 268 266 264 263 264 265 267 269 271 272 272 272 272 273 275 276 276 277 279 281 281 281 280 280 279 277 276 275 275 274 275 275 275 276 276 275 275 275 275 275 276 278 279 278 277 277 277 278 278 279 278 278 279 280
250 252 252 251 250 251 252 252 252 254 257 255 246 242 242 241 240 244 250 255 255 254 254 255 257 259 261 262 263 265 266 265 263 261 260 260 260 262 266 269 272 273 274 274 273 274 276 276 277 278 280 281 280 279 278 277 276 275 274 272 272 272 272 272 273 273 274 274 273 273 272 272 273 275 277 277 277 277 278 278 279 279 279 279 279 280
Height
3169 3168 3167 3168 3168 3169 3171 3171 3172 3171 3171 3170 3170 3169 3168 3168 3167 3167 3168 3168 3168 3167 3165 3165 3164 3163 3163 3162 3161 3160 3159 3159 3159 3159 3159 3160 3160 3160 3161 3162 3162 3162 3162 3162 3162 3162 3162 3163 3163 3163 3163 3164 3164 3164 3164 3164 3164 3163 3163 3163 3163 3163 3163 3163 3163 3162 3162 3162 3162 3163 3163 3163 3162 3162 3161 3160 3159 3158 3158 3157 3156 3156 3156 3156 3155 3155
3165 3163 3164 3166 3167 3168 3169 3169 3168 3168 3168 3168 3167 3167 3166 3166 3165 3165 3165 3165 3165 3164 3162 3161 3160 3158 3159 3159 3158 3157 3156 3155 3155 3155 3156 3156 3157 3157 3158 3158 3159 3159 3159 3159 3160 3160 3160 3161 3161 3161 3162 3162 3162 3162 3162 3161 3161 3161 3161 3161 3161 3161 3161 3161 3161 3161 3161 3160 3160 3161 3161 3162 3161 3161 3160 3159 3159 3158 3157 3157 3156 3156 3155 3155 3155 3155
3161 3160 3162 3165 3165 3165 3165 3165 3165 3165 3165 3165 3164 3164 3163 3163 3163 3163 3163 3162 3162 3161 3159 3158 3156 3154 3155 3155 3154 3153 3153 3152 3152 3151 3152 3152 3153 3154 3155 3155 3156 3156 3157 3157 3158 3158 3158 3159 3159 3159 3159 3159 3159 3159 3159 3159 3159 3159 3159 3160 3160 3160 3160 3160 3160 3160 3160 3159 3159 3159 3160 3160 3160 3160 3159 3159 3158 3157 3157 3156 3155 3155 3155 3154 3154 3154
3157 3157 3160 3162 3162 3162 3162 3162 3162 3162 3162 3161 3161 3161 3160 3160 3162 3162 3161 3160 3160 3159 3157 3156 3153 3150 3150 3150 3150 3149 3148 3148 3148 3148 3148 3148 3149 3150 3151 3152 3153 3154 3154 3155 3155 3156 3156 3156 3156 3157 3157 3157 3157 3156 3156 3157 3157 3157 3158 3158 3158 3158 3158 3158 3158 3158 3158 3158 3157 3158 3158 3159 3159 3159 3158 3157 3156 3156 3155 3155 3154 3154 3153 3153 3152 3152
3154 3155 3158 3159 3159 3159 3159 3159 3159 3159 3158 3158 3158 3158 3158 3159 3160 3160 3159 3158 3157 3155 3154 3154 3151 3145 3145 3146 3145 3145 3144 3144 3144 3144 3145 3145 3146 3147 3148 3149 3150 3151 3152 3152 3153 3153 3153 3153 3154 3154 3154 3154 3154 3154 3154 3154 3155 3155 3155 3156 3156 3156 3156 3156 3156 3156 3156 3156 3156 3156 3156 3157 3157 3157 3157 3156 3155 3154 3154 3153 3153 3152 3152 3151 3151 3150
3150 3152 3154 3155 3155 3155 3155 3155 3156 3157 3156 3155 3155 3155 3156 3157 3157 3157 3157 3156 3155 3153 3151 3153 3151 3143 3141 3142 3141 3141 3141 3141 3141 3142 3142 3143 3144 3145 3146 3146 3148 3148 3149 3150 3150 3150 3150 3151 3151 3151 3151 3151 3151 3152 3152 3152 3152 3153 3153 3154 3154 3154 3154 3154 3154 3154 3154 3154 3154 3154 3154 3155 3155 3155 3155 3155 3154 3153 3152 3151 3151 3150 3150 3150 3149 3148
3146 3149 3150 3151 3151 3152 3152 3151 3153 3154 3153 3152 3151 3152 3154 3154 3154 3154 3154 3155 3153 3150 3149 3151 3150 3143 3140 3141 3140 3139 3139 3139 3140 3140 3140 3141 3142 3142 3143 3144 3145 3146 3147 3147 3147 3148 3148 3148 3148 3148 3148 3148 3149 3149 3149 3150 3150 3151 3151 3151 3151 3152 3152 3152 3151 3152 3152 3152 3151 3151 3151 3152 3152 3153 3153 3153 3152 3151 3150 3150 3149 3149 3148 3147 3147 3146
3142 3145 3147 3148 3148 3148 3147 3147 3149 3151 3151 3148 3148 3150 3151 3151 3152 3152 3152 3152 3150 3149 3147 3147 3148 3145 3140 3138 3139 3139 3138 3138 3138 3139 3139 3139 3140 3140 3141 3142 3143 3144 3144 3144 3145 3145 3145 3145 3145 3145 3145 3146 3146 3147 3147 3147 3148 3148 3149 3149 3149 3149 3149 3149 3149 3149 3149 3149 3149 3149 3149 3149 3150 3150 3150 3150 3150 3149 3148 3148 3147 3146 3146 3145 3145 3144
3140 3142 3143 3145 3145 3144 3143 3144 3146 3148 3147 3145 3146 3148 3148 3149 3149 3149 3149 3149 3148 3147 3145 3143 3145 3144 3137 3134 3137 3136 3135 3135 3136 3136 3137 3137 3138 3138 3139 3140 3141 3141 3142 3142 3142 3142 3142 3143 3143 3143 3143 3144 3144 3144 3145 3145 3146 3146 3146 3147 3147 3147 3147 3147 3147 3147 3147 3147 3147 3147 3146 3146 3147 3147 3147 3147 3147 3147 3146 3145 3145 3144 3143 3143 3142 3141
3137 3138 3140 3141 3140 3139 3140 3142 3144 3145 3144 3143 3144 3145 3146 3146 3146 3147 3147 3146 3147 3144 3140 3139 3141 3141 3133 3130 3133 3133 3131 3133 3133 3133 3134 3134 3135 3136 3137 3138 3139 3139 3140 3140 3140 3140 3140 3140 3141 3141 3141 3141 3142 3142 3143 3143 3144 3144 3144 3145 3145 3145 3145 3145 3145 3145 3145 3145 3144 3144 3144 3144 3144 3144 3144 3144 3144 3144 3143 3143 3142 3141 3140 3140 3139 3138
3134 3135 3136 3136 3136 3136 3138 3139 3140 3141 3141 3141 3142 3143 3144 3145 3145 3146 3144 3145 3145 3138 3133 3135 3137 3138 3133 3127 3129 3129 3129 3130 3130 3130 3131 3132 3134 3135 3136 3137 3137 3138 3138 3138 3138 3138 3138 3138 3138 3139 3139 3139 3139 3140 3141 3141 3141 3142 3142 3143 3143 3143 3143 3143 3143 3143 3143 3142 3142 3141 3141 3141 3141 3141 3141 3141 3141 3141 3140 3139 3139 3138 3137 3136 3135 3134
3129 3130 3131 3131 3132 3133 3134 3135 3136 3137 3137 3138 3139 3141 3143 3143 3144 3144 3143 3144 3142 3132 3129 3132 3132 3134 3131 3124 3125 3126 3126 3127 3127 3127 3129 3130 3132 3134 3135 3136 3136 3137 3136 3137 3137 3136 3136 3136 3136 3136 3136 3137 3137 3138 3139 3139 3139 3140 3140 3140 3140 3141 3141 3141 3141 3140 3140 3139 3139 3138 3138 3138 3138 3138 3138 3138 3138 3137 3137 3136 3135 3134 3133 3132 3131 3130
3125 3126 3127 3128 3128 3129 3131 3132 3133 3134 3134 3135 3136 3138 3141 3141 3142 3141 3139 3138 3134 3128 3127 3129 3130 3129 3124 3120 3123 3124 3124 3125 3125 3126 3127 3129 3131 3132 3134 3134 3134 3135 3135 3135 3135 3134 3134 3134 3134 3134 3134 3135 3136 3136 3137 3137 3137 3137 3138 3138 3138 3138 3138 3138 3138 3137 3136 3136 3135 3135 3135 3135 3135 3135 3135 3135 3134 3134 3133 3132 3131 3131 3129 3128 3127 3126
3122 3122 3123 3124 3123 3124 3125 3126 3127 3127 3129 3130 3131 3134 3135 3136 3138 3136 3134 3133 3129 3125 3124 3126 3128 3124 3118 3116 3119 3121 3122 3123 3123 3124 3126 3127 3129 3131 3132 3133 3133 3133 3133 3133 3133 3133 3132 3132 3133 3133 3133 3134 3134 3134 3135 3135 3135 3135 3136 3136 3136 3136 3135 3135 3134 3134 3133 3133 3132 3132 3131 3131 3131 3131 3131 3131 3131 3130 3129 3129 3127 3126 3125 3124 3123 3122
3120 3117 3116 3118 3118 3118 3119 3120 3122 3124 3126 3127 3127 3130 3129 3129 3131 3129 3127 3126 3124 3122 3123 3125 3125 3118 3113 3114 3114 3116 3120 3121 3121 3122 3124 3126 3128 3129 3130 3131 3131 3132 3132 3132 3131 3131 3131 3131 3131 3131 3132 3132 3132 3133 3133 3133 3133 3133 3134 3133 3133 3133 3132 3132 3131 3131 3130 3130 3129 3129 3128 3128 3128 3128 3128 3128 3127 3127 3126 3125 3123 3122 3121 3120 3119 3118
3115 3112 3112 3114 3114 3114 3116 3117 3119 3122 3125 3124 3125 3126 3125 3124 3125 3124 3123 3122 3122 3122 3121 3120 3117 3111 3110 3112 3112 3114 3116 3118 3119 3120 3122 3124 3125 3127 3128 3129 3129 3130 3129 3129 3129 3129 3129 3129 3129 3129 3130 3130 3131 3131 3131 3131 3131 3131 3131 3130 3130 3130 3129 3129 3128 3128 3127 3126 3126 3125 3125 3125 3125 3124 3124 3124 3124 3123 3122 3120 3119 3118 3117 3116 3115 3113
3111 3108 3109 3111 3111 3112 3113 3114 3116 3118 3119 3120 3120 3120 3119 3121 3122 3122 3122 3121 3123 3121 3114 3112 3110 3108 3109 3109 3109 3112 3113 3115 3117 3118 3120 3122 3122 3124 3125 3126 3127 3127 3127 3126 3126 3126 3127 3127 3127 3127 3128 3128 3128 3128 3128 3128 3128 3128 3127 3127 3126 3126 3126 3126 3125 3125 3124 3123 3123 3122 3122 3121 3121 3121 3121 3120 3120 3119 3117 3116 3115 3114 3113 3111 3110 3109
3108 3106 3106 3108 3108 3109 3110 3111 3112 3114 3115 3115 3115 3115 3117 3121 3121 3121 3122 3120 3121 3119 3109 3105 3105 3105 3106 3105 3105 3108 3110 3111 3114 3115 3117 3118 3119 3121 3122 3123 3124 3123 3124 3124 3123 3124 3124 3124 3124 3125 3125 3125 3125 3125 3125 3125 3125 3124 3124 3123 3123 3123 3122 3122 3122 3121 3121 3120 3119 3119 3118 3117 3117 3117 3117 3116 3115 3114 3113 3111 3110 3109 3108 3106 3105 3103
3106 3105 3103 3105 3106 3107 3108 3109 3109 3109 3111 3112 3112 3113 3116 3117 3116 3118 3119 3116 3116 3114 3106 3101 3101 3100 3100 3100 3100 3103 3106 3107 3110 3112 3113 3115 3116 3118 3119 3120 3120 3120 3120 3121 3121 3121 3122 3122 3122 3122 3122 3122 3122 3122 3121 3121 3121 3121 3120 3120 3119 3119 3119 3119 3118 3118 3117 3116 3115 3115 3114 3113 3113 3113 3112 3111 3110 3109 3108 3107 3105 3104 3102 3101 3099 3098
3103 3103 3101 3101 3103 3104 3104 3104 3103 3104 3106 3108 3109 3111 3112 3112 3112 3112 3112 3109 3109 3107 3102 3099 3097 3093 3092 3094 3097 3099 3101 3104 3106 3108 3110 3112 3114 3115 3116 3116 3117 3117 3118 3118 3118 3119 3119 3120 3119 3119 3119 3118 3118 3118 3118 3118 3117 3117 3117 3116 3116 3115 3115 3115 3114 3114 3113 3112 3111 3110 3110 3109 3109 3108 3107 3106 3105 3104 3103 3101 3100 3099 3097 3096 3095 3094
3100 3100 3098 3097 3099 3099 3097 3096 3096 3097 3099 3100 3102 3104 3105 3107 3108 3108 3106 3104 3104 3103 3100 3098 3092 3086 3086 3091 3093 3096 3098 3101 3103 3106 3108 3109 3110 3111 3112 3113 3114 3114 3115 3115 3116 3116 3116 3117 3116 3116 3115 3115 3115 3114 3114 3114 3114 3113 3113 3112 3112 3112 3111 3111 3110 3109 3108 3108 3107 3106 3105 3105 3104 3103 3102 3101 3100 3099 3098 3096 3095 3094 3093 3092 3091 3090
3094 3094 3094 3093 3092 3091 3090 3091 3093 3094 3094 3094 3094 3094 3096 3099 3102 3103 3100 3098 3100 3099 3097 3095 3089 3083 3084 3088 3090 3093 3095 3098 3100 3103 3104 3106 3107 3108 3108 3109 3110 3111 3112 3112 3112 3112 3113 3113 3112 3112 3111 3111 3111 3111 3110 3110 3110 3110 3109 3109 3108 3108 3107 3106 3105 3105 3104 3103 3103 3102 3101 3100 3099 3098 3097 3096 3095 3094 3093 3092 3091 3090 3089 3088 3086 3085
3089 3090 3090 3089 3087 3087 3088 3089 3090 3090 3091 3092 3091 3090 3092 3093 3093 3094 3093 3092 3096 3096 3094 3095 3091 3084 3083 3086 3088 3090 3092 3094 3097 3099 3100 3102 3103 3104 3105 3106 3107 3108 3108 3108 3108 3109 3109 3109 3109 3108 3108 3107 3107 3107 3107 3106 3106 3106 3105 3105 3104 3103 3103 3102 3101 3100 3100 3099 3099 3098 3096 3095 3094 3093 3092 3092 3091 3090 3089 3088 3087 3086 3084 3083 3082 3081
3085 3085 3086 3086 3085 3086 3086 3086 3087 3088 3088 3087 3085 3085 3087 3087 3088 3090 3089 3089 3091 3089 3090 3094 3090 3082 3082 3084 3086 3088 3089 3091 3093 3094 3096 3097 3098 3099 3100 3101 3103 3103 3104 3104 3105 3105 3105 3105 3104 3104 3104 3104 3103 3103 3103 3103 3103 3102 3101 3100 3100 3099 3098 3098 3097 3096 3096 3095 3094 3093 3092 3091 3090 3089 3088 3088 3087 3086 3085 3083 3082 3080 3079 3078 3077 3076
3079 3078 3081 3084 3085 3084 3084 3084 3083 3082 3081 3078 3077 3079 3080 3082 3086 3088 3087 3088 3087 3082 3085 3089 3083 3077 3080 3082 3082 3085 3086 3087 3089 3091 3092 3093 3094 3094 3095 3096 3098 3098 3099 3100 3101 3101 3101 3101 3100 3100 3100 3100 3099 3099 3099 3099 3098 3097 3097 3096 3095 3095 3094 3094 3093 3093 3092 3091 3089 3088 3087 3086 3085 3085 3084 3083 3082 3081 3080 3078 3077 3076 3075 3074 3073 3072
3071 3071 3073 3075 3075 3073 3072 3070 3068 3067 3069 3070 3070 3073 3075 3077 3080 3080 3083 3085 3080 3076 3079 3079 3075 3075 3077 3078 3079 3081 3083 3084 3086 3087 3088 3088 3089 3090 3091 3092 3092 3093 3095 3096 3097 3097 3097 3096 3096 3096 3096 3095 3095 3095 3095 3094 3093 3093 3092 3092 3091 3091 3090 3090 3089 3088 3087 3086 3085 3084 3083 3082 3081 3080 3079 3079 3078 3077 3075 3074 3073 3072 3071 3070 3069 3068
3065 3063 3063 3062 3061 3060 3059 3059 3059 3060 3063 3064 3064 3066 3069 3071 3073 3076 3078 3075 3073 3074 3073 3069 3072 3075 3073 3073 3077 3079 3080 3081 3082 3083 3084 3084 3085 3086 3086 3087 3088 3089 3091 3092 3092 3092 3092 3092 3092 3091 3091 3090 3090 3090 3090 3089 3088 3088 3088 3088 3088 3087 3087 3086 3085 3084 3082 3081 3080 3079 3078 3077 3077 3076 3075 3074 3073 3072 3071 3070 3068 3067 3066 3065 3064 3063
3058 3056 3055 3055 3055 3056 3057 3057 3058 3059 3060 3060 3060 3061 3063 3066 3068 3069 3067 3065 3069 3072 3065 3061 3069 3073 3069 3070 3074 3076 3077 3078 3079 3079 3079 3080 3081 3081 3082 3082 3083 3085 3085 3086 3086 3087 3087 3087 3086 3086 3085 3085 3085 3085 3084 3084 3084 3084 3084 3084 3084 3083 3082 3082 3080 3079 3078 3076 3075 3075 3074 3073 3072 3071 3071 3070 3069 3068 3066 3065 3064 3063 3062 3061 3060 3059
3052 3050 3049 3051 3051 3052 3054 3055 3054 3055 3056 3057 3057 3057 3058 3060 3060 3059 3059 3062 3065 3064 3058 3059 3065 3066 3066 3068 3071 3073 3075 3075 3075 3075 3076 3076 3077 3076 3077 3078 3078 3079 3079 3080 3081 3081 3081 3081 3080 3080 3080 3080 3080 3079 3079 3079 3079 3080 3080 3080 3080 3079 3078 3077 3076 3074 3073 3072 3071 3071 3070 3068 3067 3067 3066 3065 3064 3063 3062 3061 3059 3058 3057 3056 3055 3055
3047 3044 3044 3047 3047 3048 3050 3050 3050 3052 3052 3052 3053 3053 3054 3054 3053 3054 3057 3060 3061 3058 3056 3059 3060 3059 3062 3065 3067 3070 3071 3070 3071 3072 3072 3072 3072 3072 3072 3072 3073 3073 3074 3075 3075 3075 3075 3075 3075 3075 3074 3074 3074 3074 3075 3075 3076 3076 3076 3076 3076 3075 3074 3073 3071 3070 3068 3068 3067 3067 3065 3064 3063 3062 3062 3061 3060 3058 3057 3056 3055 3054 3053 3052 3051 3050
3042 3040 3040 3043 3044 3043 3043 3044 3047 3047 3046 3047 3048 3048 3048 3048 3048 3051 3054 3056 3055 3052 3053 3057 3056 3053 3056 3060 3064 3066 3065 3066 3067 3067 3067 3067 3067 3067 3067 3066 3067 3068 3068 3069 3069 3069 3068 3068 3068 3068 3069 3069 3069 3070 3070 3071 3072 3072 3072 3072 3071 3070 3069 3068 3066 3065 3064 3063 3063 3062 3060 3059 3058 3058 3057 3056 3055 3054 3053 3052 3051 3050 3049 3047 3046 3045
3036 3036 3036 3039 3039 3037 3037 3040 3042 3041 3043 3044 3040 3037 3038 3040 3042 3045 3047 3048 3048 3047 3050 3052 3049 3047 3052 3056 3059 3060 3060 3062 3062 3062 3062 3062 3062 3061 3061 3061 3062 3063 3063 3063 3063 3063 3063 3063 3063 3063 3063 3064 3065 3065 3066 3067 3067 3067 3067 3067 3066 3065 3064 3063 3061 3060 3059 3059 3058 3057 3055 3055 3054 3054 3053 3052 3051 3050 3049 3048 3046 3045 3044 3043 3042 3041
3030 3030 3031 3033 3033 3031 3032 3035 3037 3040 3042 3034 3022 3023 3030 3033 3036 3040 3041 3041 3042 3043 3045 3044 3042 3045 3050 3052 3053 3054 3056 3057 3057 3057 3058 3057 3056 3056 3055 3056 3057 3058 3058 3058 3058 3058 3058 3057 3058 3058 3058 3059 3060 3060 3061 3061 3061 3062 3062 3062 3061 3060 3058 3057 3056 3056 3055 3054 3053 3052 3051 3050 3049 3049 3048 3047 3046 3045 3044 3043 3042 3041 3040 3039 3037 3036
3024 3024 3025 3027 3028 3027 3028 3031 3035 3037 3030 3015 3009 3017 3025 3027 3030 3033 3033 3033 3036 3037 3038 3038 3040 3044 3046 3046 3047 3049 3050 3051 3052 3052 3052 3051 3051 3051 3051 3052 3053 3053 3053 3053 3053 3053 3052 3052 3053 3053 3054 3054 3055 3055 3056 3056 3056 3056 3056 3056 3055 3054 3053 3052 3051 3051 3050 3049 3048 3047 3046 3045 3045 3044 3043 3043 3042 3041 3040 3039 3038 3037 3036 3034 3033 3031
3018 3019 3021 3023 3023 3023 3024 3029 3031 3024 3012 3006 3010 3017 3019 3022 3026 3027 3027 3028 3030 3032 3033 3035 3037 3039 3040 3042 3044 3044 3045 3045 3046 3045 3045 3046 3046 3047 3048 3049 3049 3048 3048 3048 3048 3048 3048 3048 3048 3048 3049 3050 3050 3050 3051 3051 3051 3051 3050 3050 3049 3048 3048 3047 3046 3046 3045 3044 3043 3042 3042 3041 3040 3039 3038 3038 3037 3036 3036 3035 3033 3032 3031 3029 3028 3026
3012 3014 3015 3016 3018 3019 3020 3020 3017 3010 3005 3008 3011 3011 3013 3018 3022 3022 3022 3023 3025 3027 3029 3031 3033 3035 3036 3037 3038 3039 3039 3040 3040 3040 3040 3041 3042 3043 3043 3044 3044 3043 3043 3043 3043 3043 3043 3044 3044 3044 3045 3045 3045 3046 3046 3046 3045 3045 3045 3044 3044 3043 3043 3042 3041 3041 3040 3039 3038 3038 3037 3036 3035 3034 3033 3033 3032 3032 3031 3030 3028 3027 3026 3024 3023 3021
3007 3009 3010 3011 3011 3011 3012 3011 3008 3007 3006 3006 3005 3006 3011 3015 3017 3018 3018 3018 3020 3023 3024 3026 3029 3030 3031 3031 3032 3033 3034 3034 3034 3035 3036 3037 3037 3038 3038 3038 3038 3038 3039 3039 3039 3039 3039 3039 3040 3040 3040 3041 3041 3041 3041 3040 3040 3040 3039 3039 3038 3038 3037 3036 3036 3035 3035 3034 3034 3033 3032 3031 3030 3029 3029 3028 3027 3027 3026 3024 3023 3022 3021 3019 3018 3017
3002 3003 3005 3006 3006 3006 3008 3008 3008 3007 3003 3000 3001 3006 3010 3012 3013 3014 3014 3013 3015 3017 3018 3021 3023 3024 3025 3026 3027 3028 3029 3029 3028 3030 3032 3033 3032 3032 3033 3033 3033 3034 3034 3034 3035 3035 3035 3035 3036 3036 3036 3036 3036 3036 3035 3035 3035 3034 3034 3033 3033 3032 3031 3031 3031 3030 3030 3029 3028 3027 3027 3026 3025 3025 3024 3023 3023 3022 3021 3019 3018 3017 3016 3015 3013 3012
2998 2999 3001 3003 3002 3003 3004 3004 3003 3001 2998 2997 3001 3004 3007 3008 3010 3012 3011 3008 3009 3011 3013 3016 3017 3018 3019 3021 3022 3024 3025 3024 3024 3027 3028 3027 3027 3028 3028 3029 3030 3030 3030 3030 3031 3031 3031 3031 3031 3032 3032 3032 3031 3031 3030 3030 3029 3029 3028 3028 3027 3027 3026 3026 3026 3025 3024 3024 3023 3022 3022 3021 3021 3020 3019 3018 3018 3017 3016 3015 3014 3012 3011 3010 3009 3007
2994 2996 2998 2998 2998 2999 3000 2999 2998 2996 2996 2997 2999 3001 3003 3005 3007 3010 3008 3004 3004 3008 3009 3010 3012 3014 3015 3017 3018 3019 3020 3020 3021 3022 3022 3021 3023 3024 3024 3025 3025 3025 3026 3026 3027 3027 3027 3027 3027 3027 3027 3027 3026 3025 3025 3024 3024 3024 3023 3023 3022 3022 3022 3022 3021 3020 3020 3019 3018 3018 3017 3017 3016 3015 3015 3014 3013 3012 3011 3010 3009 3008 3006 3005 3004 3003
2990 2991 2992 2993 2995 2996 2997 2996 2995 2994 2994 2996 2998 2999 3001 3003 3004 3005 3003 3000 3003 3006 3006 3007 3009 3011 3012 3013 3014 3015 3016 3016 3016 3016 3017 3018 3019 3020 3020 3021 3021 3021 3022 3022 3022 3023 3022 3022 3022 3022 3021 3021 3020 3020 3020 3019 3019 3018 3018 3018 3017 3017 3017 3017 3016 3015 3015 3014 3014 3013 3013 3012 3011 3010 3010 3009 3008 3007 3006 3005 3004 3003 3002 3000 2999 2998
2985 2987 2988 2990 2992 2993 2994 2994 2994 2992 2991 2993 2995 2996 2998 2999 2998 2998 2999 2999 3001 3003 3003 3005 3006 3007 3008 3010 3011 3011 3012 3012 3012 3012 3013 3014 3015 3015 3016 3016 3016 3017 3018 3018 3018 3018 3017 3017 3017 3016 3016 3016 3015 3015 3014 3014 3014 3014 3013 3013 3013 3013 3012 3011 3011 3011 3010 3010 3009 3008 3008 3007 3006 3005 3004 3004 3003 3002 3001 3000 2999 2998 2997 2995 2994 2993
2981 2983 2984 2986 2987 2990 2991 2992 2991 2987 2986 2989 2993 2993 2993 2994 2993 2995 2997 2997 2998 2999 3001 3001 3002 3003 3004 3005 3006 3007 3007 3007 3008 3009 3010 3010 3011 3011 3011 3012 3013 3013 3013 3013 3012 3012 3012 3012 3012 3011 3011 3010 3010 3010 3010 3009 3009 3009 3009 3008 3009 3008 3007 3007 3007 3006 3005 3005 3004 3003 3003 3002 3001 3000 3000 2999 2998 2997 2996 2995 2994 2993 2992 2990 2989 2988
2979 2979 2980 2981 2983 2985 2985 2985 2983 2982 2984 2987 2988 2988 2990 2991 2991 2992 2994 2994 2994 2996 2997 2997 2999 3000 3001 3001 3002 3002 3002 3003 3004 3005 3006 3006 3006 3007 3007 3008 3008 3007 3007 3008 3007 3007 3007 3007 3007 3007 3006 3005 3005 3005 3005 3005 3005 3004 3004 3004 3004 3004 3003 3002 3002 3001 3000 3000 2999 2998 2998 2997 2996 2996 2995 2994 2993 2992 2991 2990 2989 2987 2986 2985 2984 2982
2975 2975 2976 2977 2979 2979 2979 2979 2979 2979 2982 2983 2983 2984 2986 2987 2987 2988 2989 2990 2991 2992 2993 2994 2995 2996 2997 2998 2998 2997 2998 2999 3000 3001 3002 3002 3002 3002 3002 3002 3002 3003 3003 3003 3003 3003 3003 3002 3002 3002 3001 3001 3001 3000 3000 3000 3000 2999 3000 3000 2999 2999 2998 2997 2997 2996 2995 2995 2994 2994 2993 2992 2992 2991 2990 2989 2988 2986 2985 2984 2983 2982 2981 2979 2978 2977
2972 2973 2974 2974 2975 2975 2975 2975 2976 2977 2979 2980 2980 2981 2981 2982 2982 2983 2985 2985 2987 2988 2989 2991 2992 2993 2993 2994 2994 2995 2996 2996 2996 2996 2997 2997 2997 2997 2997 2998 2998 2999 2999 2998 2998 2998 2998 2998 2998 2997 2997 2997 2997 2996 2996 2995 2995 2995 2995 2995 2994 2994 2993 2992 2991 2991 2990 2990 2989 2989 2988 2987 2986 2985 2984 2983 2982 2981 2980 2979 2977 2976 2975 2974 2973 2971
2969 2970 2971 2971 2971 2972 2971 2971 2972 2974 2976 2976 2977 2977 2977 2978 2978 2979 2980 2982 2983 2984 2986 2987 2988 2989 2989 2990 2991 2992 2992 2992 2992 2992 2992 2992 2992 2992 2993 2993 2994 2994 2994 2994 2993 2993 2993 2993 2993 2993 2993 2993 2992 2992 2991 2991 2990 2990 2990 2990 2989 2988 2988 2987 2986 2986 2985 2985 2984 2983 2982 2982 2981 2980 2979 2977 2976 2975 2974 2973 2972 2970 2969 2968 2967 2965
2966 2967 2967 2967 2967 2968 2967 2968 2970 2971 2972 2973 2974 2974 2974 2974 2974 2976 2977 2979 2980 2981 2982 2983 2984 2985 2986 2987 2987 2987 2988 2988 2988 2988 2988 2988 2988 2988 2988 2988 2989 2989 2989 2989 2989 2989 2989 2989 2989 2989 2989 2989 2988 2988 2987 2986 2986 2985 2984 2984 2983 2983 2982 2981 2981 2980 2980 2979 2978 2978 2977 2976 2976 2975 2973 2972 2971 2969 2968 2967 2966 2964 2963 2962 2961 2959
2963 2963 2962 2963 2963 2963 2964 2965 2967 2968 2969 2970 2971 2971 2971 2971 2972 2973 2975 2976 2977 2978 2979 2979 2980 2981 2982 2982 2982 2983 2983 2983 2983 2984 2984 2984 2984 2983 2983 2984 2984 2985 2985 2985 2985 2985 2985 2985 2985 2985 2984 2984 2984 2983 2982 2981 2981 2980 2979 2978 2978 2977 2977 2976 2976 2975 2974 2974 2973 2972 2972 2971 2970 2969 2968 2966 2965 2964 2962 2961 2960 2959 2958 2956 2955 2953
2957 2957 2957 2958 2959 2959 2960 2963 2965 2966 2966 2966 2967 2968 2968 2969 2969 2970 2972 2973 2974 2975 2975 2976 2977 2977 2977 2978 2978 2978 2979 2979 2980 2979 2979 2979 2979 2979 2979 2980 2980 2980 2980 2981 2980 2980 2981 2981 2981 2980 2980 2980 2979 2978 2977 2976 2976 2975 2974 2973 2972 2972 2971 2971 2970 2970 2969 2968 2968 2967 2966 2965 2964 2963 2962 2960 2959 2958 2957 2955 2954 2953 2952 2950 2949 2947
2953 2953 2954 2955 2955 2957 2959 2961 2962 2963 2963 2963 2964 2965 2965 2966 2967 2967 2969 2970 2970 2971 2972 2972 2972 2973 2973 2974 2974 2974 2974 2975 2975 2974 2974 2975 2975 2975 2975 2975 2976 2976 2976 2976 2975 2975 2976 2975 2975 2975 2975 2975 2974 2973 2972 2971 2970 2969 2969 2967 2967 2966 2965 2965 2964 2964 2963 2963 2962 2961 2961 2960 2958 2957 2956 2954 2953 2952 2951 2949 2948 2947 2946 2944 2943 2941